Cedar Rapids, IA

2:44 PM CST on February 19, 2018 (GMT -0600)
The Eastern Iowa Airport

Weather History for KCID - February, 2013

Change the Weather History Date:

Tuesday, February 12, 2013

  Actual Average Record
Temperature  
Mean Temperature 31 °F 23 °F  
Max Temperature 37 °F 32 °F 64 °F (1990)
Min Temperature 24 °F 15 °F -19 °F (1899)
Degree Days  
Heating Degree Days 34 42  
Month to date heating degree days 475 518  
Since 1 July heating degree days 4470 4666  
Cooling Degree Days 0 0  
Month to date cooling degree days 0 0  
Year to date cooling degree days 0 0  
Moisture  
Dew Point 23 °F    
Average Humidity 78    
Maximum Humidity 92    
Minimum Humidity 64    
Precipitation  
Precipitation 0.00 in 0.04 in 0.19 in (1964)
Month to date precipitation 0.85 0.46  
Year to date precipitation 1.79 1.38  
Sea Level Pressure  
Sea Level Pressure 30.04 in    
Wind  
Wind Speed 9 mph (SW)    
Max Wind Speed 21 mph    
Max Gust Speed 25 mph    
Visibility 10 miles    
Events      
T = Trace of Precipitation, MM = Missing Value Source: NWS Daily Summary

Daily Weather History Graph

Daily Weather History Graph

Search for Another Location

Airport or City:

Trip Planner

Search our weather history database for the weather conditions in past years. The results will help you decide how hot, cold, wet, or windy it might be!

Date:

Astronomy

Feb. 12, 2013 Rise Set
Actual Time 7:06 AM CST 5:36 PM CST
Civil Twilight 6:37 AM CST 6:05 PM CST
Nautical Twilight 6:04 AM CST 6:38 PM CST
Astronomical Twilight 5:32 AM CST 7:10 PM CST
Moon 8:00 AM CST (2/12) 8:41 PM CST (2/12)
Length of Visible Light 11h 27m
Length of Day
10h 30m
Waxing Crescent, 7% of the Moon is Illuminated
Feb 12
Waxing Crescent
Feb 17
First Quarter
Feb 25
Full
Mar 4
Last Quarter
Mar 11
New

Hourly Weather History & Observations

Time (CST) Temp. Windchill Dew Point Humidity Pressure Visibility Wind Dir Wind Speed Gust Speed Precip Events Conditions
12:52 AM 26.1 °F 14.0 °F 19.9 °F 78% 30.14 in 10.0 mi WNW 15.0 mph - N/A   Overcast
1:52 AM 26.1 °F 12.7 °F 19.9 °F 78% 30.13 in 10.0 mi West 18.4 mph - N/A   Overcast
2:52 AM 25.0 °F 11.7 °F 19.0 °F 78% 30.14 in 10.0 mi WNW 17.3 mph - N/A   Overcast
3:52 AM 25.0 °F 10.9 °F 19.0 °F 78% 30.14 in 10.0 mi WNW 19.6 mph 24.2 mph N/A   Overcast
4:52 AM 24.1 °F 11.0 °F 18.0 °F 77% 30.13 in 10.0 mi NW 16.1 mph - N/A   Overcast
5:52 AM 24.1 °F 14.4 °F 18.0 °F 77% 30.11 in 10.0 mi NW 9.2 mph - N/A   Overcast
6:52 AM 25.0 °F 15.5 °F 19.0 °F 78% 30.13 in 10.0 mi WNW 9.2 mph - N/A   Overcast
7:52 AM 25.0 °F 16.3 °F 19.9 °F 81% 30.13 in 9.0 mi WSW 8.1 mph - N/A   Overcast
8:50 AM 26.6 °F 20.0 °F 19.4 °F 74% 30.07 in 10.0 mi WSW 5.8 mph - N/A   Scattered Clouds
8:52 AM 27.0 °F 19.5 °F 21.0 °F 78% 30.11 in 10.0 mi WSW 6.9 mph - N/A   Partly Cloudy
9:52 AM 28.9 °F 20.4 °F 21.0 °F 72% 30.11 in 9.0 mi SW 9.2 mph - N/A   Partly Cloudy
10:52 AM 30.9 °F 24.3 °F 23.0 °F 72% 30.10 in 10.0 mi SW 6.9 mph - N/A   Clear
11:52 AM 33.1 °F 28.7 °F 23.0 °F 66% 30.08 in 10.0 mi SW 4.6 mph - N/A   Clear
12:52 PM 36.0 °F 28.0 °F 25.0 °F 64% 30.04 in 10.0 mi WSW 11.5 mph - N/A   Scattered Clouds
1:52 PM 36.0 °F 29.6 °F 25.0 °F 64% 30.01 in 10.0 mi SSW 8.1 mph - N/A   Clear
2:52 PM 36.0 °F 28.0 °F 25.0 °F 64% 29.99 in 10.0 mi SSW 11.5 mph - N/A   Clear
3:52 PM 37.0 °F 29.3 °F 26.1 °F 65% 29.97 in 10.0 mi SSW 11.5 mph - N/A   Clear
4:52 PM 36.0 °F - 27.0 °F 70% 29.96 in 10.0 mi Calm Calm - N/A   Clear
5:52 PM 34.0 °F 29.8 °F 26.1 °F 73% 29.95 in 10.0 mi SSE 4.6 mph - N/A   Clear
6:52 PM 32.0 °F 27.5 °F 26.1 °F 79% 29.94 in 10.0 mi SE 4.6 mph - N/A   Clear
7:52 PM 30.9 °F 27.5 °F 26.1 °F 82% 29.92 in 10.0 mi SSE 3.5 mph - N/A   Clear
8:52 PM 30.0 °F 25.2 °F 26.1 °F 85% 29.92 in 10.0 mi SSE 4.6 mph - N/A   Clear
9:52 PM 28.9 °F 25.2 °F 26.1 °F 89% 29.91 in 9.0 mi South 3.5 mph - N/A   Clear
10:52 PM 28.0 °F 21.7 °F 25.0 °F 88% 29.90 in 10.0 mi South 5.8 mph - N/A   Clear
11:52 PM 30.0 °F 22.4 °F 25.0 °F 82% 29.88 in 10.0 mi SSW 8.1 mph - N/A   Clear